Location: Eaton Estates
(41.3089°N, 82.0057°W)
Time: 13:41:35
(UTC+00:00)

USA 308 - Pass Details

Date: 31 October 2021
Orbit: 565 x 570 km, 54.0° (Epoch: 04 December)

Event Time Altitude Azimuth Distance (km) Brightness Sun altitude
Exits shadow 09:46:53 18° 4° (N) 1,426 5.0 -25.2°
Drops below altitude 10° 09:48:54 10° 31° (NNE) 1,880 5.9 -24.8°
Sets 09:51:39 0° 48° (NE) 2,780 7.2 -24.3°
